| time (UTC) | temp F | wind direction | speed MPH | gust MPH | rain 1hr in | rain 24hr in | rain mn in | humidity % | barometer mb |
| 20260505171006 | 57 | 276 | 3.0 | 8.0 | 0.00 | 0.00 | 0.00 | 63 | 1013.8 |
| 20260505170006 | 57 | 321 | 4.0 | 9.0 | 0.00 | 0.00 | 0.00 | 63 | 1013.9 |
| 20260505165006 | 58 | 345 | 4.0 | 9.0 | 0.00 | 0.00 | 0.00 | 62 | 1013.8 |
| 20260505164005 | 58 | 347 | 5.0 | 12.0 | 0.00 | 0.00 | 0.00 | 63 | 1013.8 |
| 20260505163009 | 58 | 18 | 3.0 | 9.0 | 0.00 | 0.00 | 0.00 | 63 | 1013.8 |
| 20260505161006 | 58 | 315 | 4.0 | 9.0 | 0.00 | 0.00 | 0.00 | 61 | 1013.7 |
| 20260505153006 | 59 | 63 | 2.0 | 9.0 | 0.00 | 0.00 | 0.00 | 59 | 1013.8 |
| 20260505152005 | 59 | 300 | 3.0 | 7.0 | 0.00 | 0.00 | 0.00 | 59 | 1013.9 |
| 20260505125006 | 59 | 333 | 4.0 | 11.0 | 0.00 | 0.00 | 0.00 | 54 | 1014.3 |
| 20260505124005 | 60 | 327 | 5.0 | 11.0 | 0.00 | 0.00 | 0.00 | 54 | 1014.3 |
| 20260505123006 | 61 | 299 | 3.0 | 10.0 | 0.00 | 0.00 | 0.00 | 54 | 1014.2 |
| 20260505121005 | 59 | 322 | 4.0 | 9.0 | 0.00 | 0.00 | 0.00 | 57 | 1014.3 |
| 20260505120007 | 60 | 343 | 3.0 | 6.0 | 0.00 | 0.00 | 0.00 | 55 | 1014.3 |
| 20260505114006 | 60 | 309 | 3.0 | 8.0 | 0.00 | 0.00 | 0.00 | 59 | 1014.3 |
| 20260505113005 | 58 | 307 | 3.0 | 8.0 | 0.00 | 0.00 | 0.00 | 60 | 1014.4 |
| 20260505112006 | 58 | 311 | 3.0 | 8.0 | 0.00 | 0.00 | 0.00 | 60 | 1014.5 |
| 20260505111006 | 59 | 310 | 3.0 | 9.0 | 0.00 | 0.00 | 0.00 | 58 | 1014.5 |
| 20260505102005 | 57 | 8 | 3.0 | 9.0 | 0.00 | 0.00 | 0.00 | 64 | 1014.8 |
| 20260505101006 | 57 | 334 | 3.0 | 8.0 | 0.00 | 0.00 | 0.00 | 65 | 1015.1 |
| 20260505095006 | 57 | 311 | 2.0 | 6.0 | 0.00 | 0.00 | 0.00 | 66 | 1015.1 |
| 20260505094006 | 55 | 352 | 2.0 | 7.0 | 0.00 | 0.00 | 0.00 | 70 | 1015.1 |
| 20260505093006 | 55 | 306 | 1.0 | 5.0 | 0.00 | 0.00 | 0.00 | 71 | 1015.1 |
| 20260505092006 | 55 | 266 | 3.0 | 6.0 | 0.00 | 0.00 | 0.00 | 70 | 1015.2 |
| 20260505091005 | 55 | 313 | 2.0 | 8.0 | 0.00 | 0.00 | 0.00 | 70 | 1015.3 |
| 20260505090017 | 55 | 328 | 2.0 | 7.0 | 0.00 | 0.00 | 0.00 | 71 | 1015.4 |
| 20260505085005 | 53 | 234 | 2.0 | 6.0 | 0.00 | 0.00 | 0.00 | 74 | 1015.4 |
| 20260505083006 | 53 | 26 | 3.0 | 8.0 | 0.00 | 0.00 | 0.00 | 75 | 1015.6 |
| 20260505082005 | 52 | 286 | 2.0 | 9.0 | 0.00 | 0.00 | 0.00 | 78 | 1015.6 |
| 20260505081005 | 52 | 285 | 2.0 | 6.0 | 0.00 | 0.00 | 0.00 | 78 | 1015.6 |
| 20260505080005 | 51 | 339 | 1.0 | 4.0 | 0.00 | 0.00 | 0.00 | 80 | 1015.6 |
| 20260505075005 | 51 | 278 | 1.0 | 4.0 | 0.00 | 0.00 | 0.00 | 80 | 1015.8 |
| 20260505074006 | 51 | 278 | 1.0 | 5.0 | 0.00 | 0.00 | 0.00 | 80 | 1015.6 |
| 20260505073005 | 50 | 269 | 2.0 | 5.0 | 0.00 | 0.00 | 0.00 | 81 | 1015.5 |
| 20260505072006 | 50 | 331 | 1.0 | 5.0 | 0.00 | 0.00 | 0.00 | 82 | 1015.5 |
| 20260505071006 | 50 | 315 | 1.0 | 4.0 | 0.00 | 0.00 | 0.00 | 83 | 1015.4 |
| 20260505070006 | 50 | 312 | 0.0 | 2.0 | 0.00 | 0.00 | 0.00 | 84 | 1015.5 |
| 20260505064007 | 49 | 329 | 0.0 | 0.0 | 0.00 | 0.00 | 0.00 | 85 | 1015.7 |
| 20260505063006 | 48 | 127 | 0.0 | 1.0 | 0.00 | 0.00 | 0.00 | 86 | 1015.7 |
| 20260505062005 | 48 | 120 | 0.0 | 0.0 | 0.00 | 0.00 | 0.00 | 86 | 1015.8 |
| 20260505061006 | 47 | 120 | 0.0 | 1.0 | 0.00 | 0.00 | 0.00 | 87 | 1015.8 |
| 20260505055006 | 47 | 127 | 0.0 | 2.0 | 0.00 | 0.00 | 0.00 | 86 | 1015.7 |
| 20260505054005 | 47 | 110 | 0.0 | 0.0 | 0.00 | 0.00 | 0.00 | 86 | 1015.8 |
| 20260505052005 | 48 | 349 | 0.0 | 1.0 | 0.00 | 0.00 | 0.00 | 84 | 1015.7 |
| 20260505050959 | 48 | 349 | 0.0 | 1.0 | 0.00 | 0.00 | 0.00 | 84 | 1015.7 |
| 20260505035957 | 46 | 332 | 0.0 | 0.0 | 0.00 | 0.00 | 0.00 | 89 | 1015.3 |
| 20260505034957 | 47 | 332 | 0.0 | 0.0 | 0.00 | 0.00 | 0.00 | 89 | 1015.3 |
| 20260505033957 | 47 | 332 | 0.0 | 1.0 | 0.00 | 0.00 | 0.00 | 89 | 1015.4 |
| 20260505032956 | 47 | 21 | 0.0 | 0.0 | 0.00 | 0.00 | 0.00 | 89 | 1015.4 |
| 20260505031957 | 47 | 30 | 0.0 | 0.0 | 0.00 | 0.00 | 0.00 | 89 | 1015.5 |
| 20260505030957 | 47 | 30 | 0.0 | 1.0 | 0.00 | 0.00 | 0.00 | 90 | 1015.5 |
| 20260505023954 | 47 | 329 | 0.0 | 1.0 | 0.00 | 0.00 | 0.00 | 91 | 1015.7 |
| 20260505022955 | 47 | 202 | 0.0 | 0.0 | 0.00 | 0.00 | 0.00 | 91 | 1015.7 |
| 20260505022003 | 46 | 203 | 0.0 | 0.0 | 0.00 | 0.00 | 0.00 | 91 | 1015.8 |
| 20260505021001 | 46 | 203 | 0.0 | 0.0 | 0.00 | 0.00 | 0.00 | 91 | 1015.8 |
| 20260505015959 | 46 | 203 | 0.0 | 0.0 | 0.00 | 0.00 | 0.00 | 90 | 1015.8 |
| 20260505014957 | 46 | 203 | 0.0 | 0.0 | 0.00 | 0.00 | 0.00 | 90 | 1015.9 |
| 20260505013958 | 46 | 202 | 0.0 | 2.0 | 0.00 | 0.00 | 0.00 | 90 | 1015.9 |
| 20260505011954 | 46 | 155 | 0.0 | 0.0 | 0.00 | 0.00 | 0.00 | 90 | 1016.0 |
| 20260505010959 | 46 | 155 | 0.0 | 0.0 | 0.00 | 0.00 | 0.00 | 90 | 1016.0 |
| 20260505005955 | 46 | 123 | 0.0 | 1.0 | 0.00 | 0.02 | 0.00 | 90 | 1015.9 |
| 20260505004958 | 46 | 123 | 0.0 | 0.0 | 0.00 | 0.02 | 0.00 | 90 | 1016.0 |
| 20260505004001 | 46 | 123 | 0.0 | 3.0 | 0.00 | 0.02 | 0.00 | 89 | 1016.2 |
| 20260505002953 | 47 | 134 | 0.0 | 1.0 | 0.00 | 0.02 | 0.00 | 90 | 1016.3 |
| 20260505001954 | 47 | 10 | 0.0 | 0.0 | 0.00 | 0.02 | 0.00 | 90 | 1016.4 |
| 20260505000951 | 46 | 10 | 0.0 | 0.0 | 0.00 | 0.02 | 0.00 | 90 | 1016.4 |
| 20260504235949 | 46 | 10 | 0.0 | 0.0 | 0.00 | 0.02 | 0.00 | 89 | 1016.6 |
| 20260504234955 | 47 | 10 | 0.0 | 0.0 | 0.00 | 0.02 | 0.00 | 89 | 1016.6 |
| 20260504232948 | 47 | 10 | 0.0 | 1.0 | 0.00 | 0.02 | 0.00 | 88 | 1016.6 |
| 20260504225947 | 48 | 17 | 0.0 | 0.0 | 0.00 | 0.02 | 0.02 | 87 | 1016.6 |
| 20260504224947 | 48 | 17 | 0.0 | 1.0 | 0.00 | 0.02 | 0.02 | 87 | 1016.5 |
| 20260504223947 | 49 | 16 | 0.0 | 1.0 | 0.00 | 0.03 | 0.02 | 86 | 1016.6 |
| 20260504222947 | 49 | 17 | 0.0 | 1.0 | 0.00 | 0.03 | 0.02 | 86 | 1016.7 |
| 20260504220947 | 49 | 17 | 0.0 | 0.0 | 0.00 | 0.03 | 0.02 | 86 | 1016.6 |
| 20260504214945 | 50 | 339 | 0.0 | 1.0 | 0.00 | 0.03 | 0.02 | 85 | 1016.8 |
| 20260504213945 | 51 | 328 | 0.0 | 1.0 | 0.00 | 0.03 | 0.02 | 85 | 1016.8 |
| 20260504212944 | 51 | 73 | 0.0 | 1.0 | 0.00 | 0.03 | 0.02 | 84 | 1016.8 |
| 20260504205945 | 52 | 73 | 0.0 | 1.0 | 0.00 | 0.03 | 0.02 | 83 | 1016.7 |
| 20260504203940 | 52 | 51 | 0.0 | 3.0 | 0.00 | 0.03 | 0.02 | 81 | 1016.7 |
| 20260504202938 | 53 | 35 | 0.0 | 3.0 | 0.00 | 0.03 | 0.02 | 81 | 1016.8 |
| 20260504201938 | 53 | 40 | 1.0 | 4.0 | 0.00 | 0.03 | 0.02 | 80 | 1016.6 |
| 20260504200938 | 54 | 32 | 1.0 | 5.0 | 0.00 | 0.03 | 0.02 | 79 | 1016.6 |
| 20260504194937 | 54 | 79 | 2.0 | 4.0 | 0.00 | 0.03 | 0.02 | 78 | 1016.4 |
| 20260504193937 | 55 | 73 | 2.0 | 6.0 | 0.00 | 0.03 | 0.02 | 78 | 1016.2 |
| 20260504192936 | 55 | 21 | 3.0 | 5.0 | 0.00 | 0.03 | 0.02 | 77 | 1016.1 |
| 20260504191934 | 56 | 43 | 2.0 | 5.0 | 0.00 | 0.03 | 0.02 | 75 | 1016.0 |
| 20260504190934 | 57 | 4 | 2.0 | 5.0 | 0.00 | 0.03 | 0.02 | 74 | 1016.0 |
| 20260504185934 | 58 | 51 | 3.0 | 7.0 | 0.00 | 0.03 | 0.02 | 73 | 1016.0 |
| 20260504184938 | 58 | 41 | 2.0 | 6.0 | 0.00 | 0.03 | 0.02 | 72 | 1016.1 |
| 20260504183936 | 59 | 37 | 2.0 | 5.0 | 0.00 | 0.03 | 0.02 | 71 | 1016.0 |
| 20260504181934 | 58 | 12 | 2.0 | 7.0 | 0.00 | 0.03 | 0.02 | 71 | 1015.7 |
| 20260504180933 | 59 | 60 | 2.0 | 5.0 | 0.00 | 0.03 | 0.02 | 72 | 1015.7 |
| 20260504175934 | 59 | 58 | 3.0 | 7.0 | 0.00 | 0.03 | 0.02 | 72 | 1015.6 |
| 20260504174934 | 59 | 346 | 3.0 | 9.0 | 0.00 | 0.03 | 0.02 | 71 | 1015.6 |
| 20260504173934 | 59 | 22 | 5.0 | 9.0 | 0.00 | 0.03 | 0.02 | 71 | 1015.5 |
| 20260504172934 | 59 | 14 | 5.0 | 10.0 | 0.00 | 0.03 | 0.02 | 71 | 1015.5 |
| 20260504171934 | 60 | 23 | 3.0 | 8.0 | 0.00 | 0.03 | 0.02 | 70 | 1015.5 |